Wind_Speed
44 41 39 36 33 33 31 29 28 26 24 21 18 17 16 14 11 9 8 7 7 7 7 8 8 8 9 11 12 12 13 14 16 17 18 19 21 23 24 26 26 27 28 29
48 46 44 41 37 36 34 33 31 29 26 22 20 18 16 15 12 11 9 8 8 9 9 10 10 10 12 14 15 15 15 16 18 18 18 19 22 23 25 27 29 29 30 31
51 49 48 45 40 39 37 34 34 31 27 24 21 19 17 16 13 12 11 10 10 11 11 11 12 13 14 15 16 16 18 19 20 21 21 22 23 25 27 28 30 31 31 33
51 50 52 47 44 41 39 36 34 32 30 27 24 21 18 17 15 14 12 12 12 12 12 13 14 15 16 17 19 20 21 22 23 23 23 25 27 28 30 31 32 34 35 36
46 48 48 46 43 43 40 38 36 34 32 30 27 24 20 18 17 15 14 13 13 13 14 15 16 17 18 19 21 22 22 23 24 25 27 27 29 30 31 32 33 34 35 35
41 44 45 42 40 41 40 40 37 36 35 32 28 25 21 19 17 16 15 15 15 16 16 17 18 19 20 21 23 24 25 26 27 28 29 30 31 32 33 33 33 35 35 35
35 38 39 37 36 37 38 36 35 34 33 30 26 23 21 19 16 15 15 16 17 17 18 19 20 21 22 23 24 26 27 28 29 30 31 32 32 32 33 33 34 34 35 35
29 32 32 32 32 33 33 32 32 29 27 27 24 21 19 17 16 15 16 17 18 19 20 21 22 23 24 25 26 28 29 30 31 32 32 32 32 32 33 34 34 35 36 37
22 25 26 27 28 29 29 28 29 26 24 25 22 19 18 17 17 17 17 18 19 20 21 23 24 25 26 27 28 30 31 31 32 32 33 33 33 34 35 36 37 37 38 39
15 17 20 22 23 24 25 25 26 25 23 20 20 18 16 16 17 17 18 19 21 22 23 24 25 26 27 28 29 30 31 32 33 33 34 34 35 36 37 38 39 40 41 43
11 11 13 16 18 16 17 19 21 21 19 17 17 16 14 15 16 17 19 20 22 23 24 25 26 27 28 29 30 31 32 33 33 34 35 36 37 38 39 40 42 44 45 47
6 7 9 10 11 14 14 13 14 14 14 14 14 14 14 15 17 18 19 21 22 23 24 25 27 28 29 30 31 32 33 33 34 35 36 38 39 40 42 43 45 47 48 50
4 5 6 7 8 8 9 9 9 8 9 10 10 11 13 15 17 19 20 21 23 24 25 26 27 29 30 31 32 33 34 35 36 37 38 39 41 43 45 46 48 49 51 53
2 4 4 4 5 6 6 6 6 6 7 8 11 13 15 17 18 20 21 23 24 25 26 27 28 29 31 32 33 34 35 36 37 38 39 41 43 45 46 48 50 51 53 54
2 2 3 3 2 3 4 5 6 7 9 11 13 14 16 18 20 21 23 24 25 26 28 28 29 30 31 32 33 35 36 38 39 40 42 44 46 48 49 51 52 53 53 54
4 4 3 3 3 4 4 6 8 9 11 13 14 16 17 19 21 22 24 25 26 27 28 29 30 31 32 33 34 36 38 39 41 43 45 47 49 50 51 51 52 52 52 51
5 5 5 5 6 6 7 9 10 11 13 14 16 17 19 20 22 24 25 26 27 27 28 30 31 32 34 35 37 39 41 43 45 46 48 49 50 50 50 50 49 49 49 47
7 7 7 7 8 9 10 11 12 13 15 16 18 20 21 22 23 25 25 26 27 28 30 32 34 35 37 38 40 42 44 46 47 48 48 48 48 48 47 46 46 45 44 42
9 9 9 9 10 11 12 13 14 16 17 18 19 20 21 23 24 25 27 28 29 31 32 34 36 38 40 41 43 44 45 46 47 46 46 46 45 44 43 43 42 41 39 37
10 10 11 11 12 13 14 15 16 17 18 19 20 22 23 25 26 28 29 31 32 34 36 38 39 41 42 43 44 44 45 45 44 44 44 43 42 41 40 39 37 35 34 32
12 12 13 13 14 15 16 16 18 19 20 21 23 24 26 28 30 31 33 34 36 37 39 40 41 42 42 43 43 43 42 42 42 41 40 39 38 36 35 33 32 30 29 27
13 13 14 15 16 17 18 19 20 21 22 24 26 27 29 31 32 33 35 36 37 38 39 40 40 41 41 40 40 39 39 39 37 36 35 34 32 31 30 29 27 26 24 23
14 15 16 17 18 19 21 22 23 24 26 27 29 30 31 33 34 35 36 37 37 38 38 38 38 38 38 38 37 36 36 34 33 32 31 29 28 28 27 26 24 23 22 21
16 17 19 20 21 22 24 25 26 27 28 30 31 32 33 34 35 35 35 36 36 36 35 35 35 35 35 35 34 33 32 31 30 29 29 28 27 26 25 24 22 21 21 20
19 20 21 22 23 24 26 27 28 29 30 31 32 33 33 34 33 33 33 34 33 33 33 32 32 32 31 31 31 30 30 29 28 28 27 26 24 23 23 22 22 21 20 20
21 22 23 24 25 27 28 29 29 30 31 32 32 32 31 31 31 31 30 30 30 30 30 30 30 29 30 29 29 29 28 27 26 25 24 23 22 22 22 21 20 20 20 20
23 24 25 26 27 28 29 30 30 31 31 30 30 29 29 29 28 28 28 28 28 28 27 27 27 28 28 27 27 26 24 23 23 22 21 21 21 21 20 20 20 20 20 20
Wind_Direction
252 254 252 252 254 256 260 265 268 269 269 273 279 282 289 298 301 294 293 288 278 271 268 269 270 273 272 267 263 258 257 258 257 259 260 260 262 265 265 264 266 267 266 266
253 254 253 252 253 254 257 259 262 263 263 269 274 276 284 292 291 290 287 287 285 286 286 281 276 280 282 278 271 267 267 268 263 267 270 271 270 274 275 272 272 274 272 273
254 253 254 251 252 253 254 254 256 258 260 264 269 273 280 284 281 282 282 282 282 284 285 287 286 283 281 281 276 276 279 281 278 278 278 280 282 282 281 280 279 278 276 277
254 253 251 251 250 250 250 250 252 252 254 258 261 266 272 271 272 273 276 277 278 280 283 286 286 285 285 285 283 285 285 286 288 289 289 288 287 287 286 283 281 280 280 280
252 252 252 250 247 245 245 245 246 248 250 254 256 259 261 265 268 269 272 273 274 276 279 282 283 283 284 284 285 286 288 290 290 290 289 289 289 289 288 287 285 283 283 281
253 252 252 249 245 243 243 242 242 246 249 249 252 253 254 257 257 261 265 268 271 272 275 279 281 283 284 285 286 288 289 290 291 292 292 291 290 290 289 287 287 286 285 282
254 252 250 246 244 242 242 244 244 245 243 242 245 249 252 249 253 258 261 264 267 271 275 278 280 283 285 286 288 288 289 290 291 292 292 291 291 291 289 287 287 287 285 284
254 252 251 246 244 241 242 244 244 241 238 240 240 239 237 242 247 254 258 261 266 270 274 277 279 282 284 286 287 288 288 289 290 291 290 290 289 288 287 287 286 286 285 285
256 253 249 244 243 242 242 244 242 238 241 241 241 241 239 239 247 253 257 262 268 272 274 277 279 280 282 285 286 287 287 288 289 289 288 288 288 288 288 288 288 288 288 288
257 252 245 243 240 242 240 242 242 245 243 235 241 239 235 241 248 255 260 266 270 273 276 278 280 282 283 285 287 287 288 289 289 288 288 288 288 288 288 289 289 290 290 290
258 248 241 239 238 234 235 241 243 243 236 238 236 234 239 246 253 258 264 269 273 276 278 279 281 283 285 286 287 288 288 288 288 289 289 289 289 290 290 290 291 291 291 292
259 248 245 238 233 233 237 230 223 222 221 224 229 235 246 254 260 265 268 272 275 277 279 281 282 284 286 286 287 288 289 290 289 290 290 290 290 291 291 291 292 292 293 293
260 237 222 225 223 213 204 209 211 214 222 226 237 250 259 263 266 270 273 276 278 279 281 283 284 285 287 288 289 290 291 291 291 292 292 292 293 293 294 294 294 295 295 295
221 200 195 195 202 202 200 207 216 233 240 243 250 257 263 268 271 274 277 279 280 282 284 286 287 288 289 290 291 292 292 292 292 293 293 294 294 295 295 295 296 296 296 296
232 209 210 214 216 218 224 230 243 252 256 259 262 266 270 273 276 278 281 283 285 286 287 287 288 290 290 292 293 293 293 293 293 294 294 295 295 296 296 296 296 296 296 296
242 231 221 221 228 236 244 252 256 257 260 265 269 273 276 278 281 283 285 286 288 288 289 290 291 292 293 293 294 294 295 295 295 295 295 296 296 296 296 297 297 297 297 297
247 244 243 250 254 253 254 257 261 264 267 270 273 277 280 283 284 285 286 287 289 290 291 292 293 295 295 295 295 296 296 296 296 297 297 297 297 298 298 298 298 298 298 298
252 254 256 259 259 261 265 267 269 271 273 276 279 282 283 285 286 288 289 290 292 293 295 295 296 296 296 296 297 297 297 298 298 298 298 299 299 299 299 299 299 299 299 299
248 253 258 261 266 270 272 274 277 278 281 282 284 286 289 291 292 292 294 294 295 297 298 298 298 297 298 298 298 298 298 299 299 300 300 300 300 301 301 301 301 300 300 301
254 260 266 269 273 276 278 281 283 286 288 288 289 291 293 294 296 297 299 299 299 299 300 299 299 300 300 299 300 300 300 300 301 301 301 302 302 302 302 303 303 302 302 301
262 268 272 276 280 282 284 287 289 290 292 293 295 296 298 299 299 299 300 300 301 301 301 302 301 301 301 301 301 301 301 301 302 302 303 303 304 304 304 304 304 303 303 303
266 272 276 280 283 285 287 290 292 293 294 295 297 298 300 301 301 300 300 301 301 302 302 302 302 302 302 302 303 303 303 304 304 305 305 305 306 306 306 306 305 305 305 305
272 277 282 285 287 289 291 292 294 296 297 297 299 299 300 301 302 302 302 302 303 303 303 303 303 303 303 303 304 305 305 306 306 307 307 307 308 308 308 308 306 305 306 306
277 280 284 286 287 289 292 294 295 295 296 297 299 300 301 302 302 302 303 303 304 304 304 305 305 305 305 307 308 308 309 309 308 308 308 309 310 310 310 309 307 306 305 306
279 281 284 286 288 291 292 293 294 295 297 298 299 300 301 301 302 303 304 305 306 306 307 307 308 308 309 310 309 310 310 310 310 310 310 310 311 312 311 310 308 306 306 306
282 283 285 287 289 291 292 293 294 296 298 299 299 300 301 302 303 305 307 308 308 308 308 309 310 310 312 312 312 312 313 312 312 312 312 312 312 313 313 312 311 309 309 308
284 285 286 288 290 292 293 293 294 296 297 297 298 299 301 303 304 305 306 308 309 309 309 309 309 311 313 315 316 317 317 317 317 317 317 316 316 316 316 315 313 313 312 310
Height
5819 5821 5824 5826 5828 5830 5831 5831 5832 5832 5833 5834 5834 5835 5835 5834 5834 5833 5833 5833 5834 5834 5834 5834 5834 5834 5834 5833 5833 5832 5832 5833 5834 5834 5834 5834 5834 5833 5832 5831 5831 5831 5830 5830
5811 5813 5814 5817 5820 5822 5824 5825 5825 5826 5827 5828 5829 5830 5830 5830 5830 5830 5830 5830 5830 5830 5830 5830 5830 5829 5830 5829 5828 5826 5827 5827 5827 5827 5827 5827 5826 5825 5825 5824 5824 5823 5822 5821
5800 5803 5805 5807 5812 5814 5816 5817 5819 5820 5823 5823 5824 5825 5826 5826 5826 5826 5825 5825 5826 5825 5825 5825 5825 5824 5824 5824 5823 5822 5822 5821 5821 5820 5819 5819 5818 5818 5817 5816 5816 5815 5814 5812
5788 5792 5793 5799 5802 5805 5807 5809 5810 5812 5815 5817 5818 5819 5820 5821 5821 5821 5821 5821 5821 5820 5820 5820 5820 5819 5819 5819 5818 5817 5816 5815 5815 5814 5813 5812 5812 5810 5809 5808 5807 5806 5804 5802
5777 5778 5781 5786 5790 5794 5797 5799 5802 5804 5807 5809 5811 5812 5814 5815 5816 5816 5816 5816 5816 5816 5815 5815 5815 5814 5814 5813 5812 5811 5810 5809 5808 5807 5806 5805 5803 5802 5800 5798 5797 5795 5793 5791
5766 5768 5770 5776 5780 5782 5787 5788 5793 5795 5798 5801 5803 5805 5807 5807 5809 5810 5811 5811 5811 5811 5810 5810 5809 5809 5808 5807 5806 5804 5803 5802 5801 5799 5797 5796 5794 5793 5791 5788 5787 5785 5783 5781
5757 5757 5760 5765 5768 5773 5777 5781 5784 5785 5789 5791 5794 5798 5800 5801 5803 5805 5805 5805 5806 5805 5805 5804 5803 5802 5801 5800 5799 5797 5796 5794 5793 5791 5789 5787 5785 5783 5781 5778 5776 5774 5772 5770
5750 5750 5755 5757 5761 5765 5769 5772 5775 5776 5779 5783 5785 5789 5792 5795 5797 5799 5800 5800 5800 5800 5799 5798 5797 5796 5795 5793 5791 5790 5788 5786 5784 5782 5780 5778 5776 5773 5771 5769 5767 5764 5762 5759
5745 5747 5748 5750 5754 5758 5762 5765 5768 5771 5774 5777 5780 5783 5786 5789 5791 5793 5794 5794 5794 5794 5793 5792 5791 5790 5788 5786 5784 5782 5780 5778 5776 5773 5771 5769 5766 5764 5761 5759 5756 5753 5750 5747
5739 5740 5742 5745 5748 5751 5755 5759 5762 5764 5767 5770 5774 5778 5780 5782 5784 5786 5787 5787 5787 5787 5786 5785 5784 5782 5780 5778 5776 5774 5771 5769 5766 5764 5761 5759 5756 5754 5751 5748 5745 5741 5738 5734
5736 5737 5739 5741 5744 5747 5750 5753 5756 5758 5762 5765 5768 5771 5774 5776 5778 5780 5780 5780 5780 5779 5778 5777 5775 5773 5772 5770 5767 5765 5763 5760 5758 5755 5752 5749 5746 5743 5740 5736 5733 5729 5725 5720
5735 5735 5736 5738 5739 5743 5745 5749 5751 5754 5757 5760 5763 5766 5768 5770 5772 5773 5773 5773 5772 5771 5770 5768 5766 5765 5763 5761 5758 5756 5753 5751 5748 5745 5741 5738 5734 5731 5727 5723 5719 5715 5710 5705
5733 5734 5735 5736 5737 5740 5743 5746 5749 5751 5754 5756 5759 5761 5763 5764 5765 5766 5765 5765 5764 5763 5762 5760 5758 5756 5754 5752 5749 5747 5744 5741 5737 5734 5731 5727 5723 5719 5714 5709 5704 5700 5694 5689
5732 5732 5733 5735 5737 5738 5741 5744 5746 5749 5751 5753 5755 5757 5758 5759 5759 5759 5758 5757 5756 5755 5753 5751 5749 5747 5745 5742 5739 5736 5733 5730 5727 5723 5719 5715 5711 5706 5701 5696 5690 5684 5678 5672
5731 5732 5733 5735 5737 5738 5740 5742 5744 5746 5748 5749 5751 5752 5752 5752 5752 5751 5750 5749 5748 5746 5744 5742 5740 5738 5735 5732 5729 5726 5723 5719 5716 5711 5707 5702 5697 5692 5686 5681 5675 5669 5662 5656
5729 5731 5732 5734 5735 5737 5739 5740 5742 5743 5745 5745 5746 5746 5746 5745 5745 5743 5742 5741 5740 5738 5736 5733 5731 5728 5725 5722 5719 5715 5712 5708 5703 5698 5693 5688 5683 5677 5671 5665 5659 5652 5646 5640
5728 5729 5731 5732 5734 5735 5736 5738 5739 5739 5740 5740 5740 5740 5739 5738 5737 5736 5735 5733 5731 5729 5727 5724 5721 5718 5714 5711 5707 5703 5699 5694 5689 5684 5679 5673 5668 5662 5656 5649 5643 5637 5631 5625
5726 5727 5728 5730 5731 5732 5733 5734 5734 5735 5735 5734 5734 5733 5732 5731 5730 5728 5727 5725 5722 5720 5717 5714 5710 5707 5703 5699 5695 5690 5685 5680 5675 5670 5664 5658 5652 5646 5640 5635 5629 5623 5617 5611
5723 5724 5725 5726 5727 5728 5728 5728 5729 5728 5728 5728 5727 5726 5725 5723 5722 5720 5718 5715 5713 5710 5706 5702 5699 5695 5691 5686 5682 5677 5671 5666 5660 5655 5649 5644 5638 5632 5627 5621 5615 5610 5605 5600
5719 5720 5721 5722 5723 5723 5723 5723 5723 5722 5721 5721 5720 5718 5717 5715 5713 5711 5708 5705 5702 5698 5694 5690 5686 5682 5678 5673 5668 5662 5657 5651 5646 5641 5635 5630 5625 5619 5614 5609 5603 5598 5594 5590
5715 5716 5716 5717 5717 5717 5717 5716 5716 5715 5714 5713 5712 5710 5708 5706 5703 5700 5697 5694 5690 5686 5683 5678 5674 5669 5664 5659 5654 5649 5644 5638 5633 5628 5623 5618 5613 5607 5602 5598 5593 5589 5585 5581
5710 5711 5711 5711 5711 5711 5710 5710 5709 5708 5707 5705 5703 5701 5699 5696 5693 5690 5687 5683 5679 5675 5671 5666 5662 5657 5652 5647 5642 5637 5631 5626 5621 5616 5612 5607 5602 5597 5593 5589 5585 5581 5577 5574
5705 5705 5705 5705 5704 5704 5703 5702 5701 5700 5698 5696 5694 5692 5689 5686 5683 5680 5676 5672 5668 5664 5660 5655 5650 5645 5640 5636 5631 5626 5621 5616 5611 5607 5602 5598 5593 5589 5585 5581 5578 5574 5571 5568
5699 5699 5699 5698 5698 5697 5696 5694 5693 5692 5690 5688 5685 5682 5679 5676 5672 5669 5665 5661 5657 5653 5649 5644 5640 5635 5630 5625 5621 5616 5611 5607 5603 5598 5594 5590 5586 5582 5578 5574 5571 5568 5565 5562
5693 5692 5692 5691 5690 5689 5688 5687 5685 5683 5681 5678 5676 5673 5669 5666 5663 5659 5655 5651 5647 5643 5639 5635 5630 5626 5621 5617 5612 5608 5603 5599 5595 5591 5586 5583 5579 5575 5572 5568 5565 5562 5559 5556
5686 5685 5684 5684 5683 5681 5680 5678 5676 5674 5672 5669 5666 5663 5660 5657 5654 5650 5646 5643 5639 5635 5630 5626 5622 5618 5613 5609 5605 5600 5596 5592 5588 5583 5580 5576 5573 5569 5566 5563 5559 5556 5553 5551
5678 5677 5676 5675 5674 5672 5671 5669 5667 5664 5662 5660 5657 5654 5651 5648 5645 5642 5639 5635 5631 5627 5623 5619 5615 5611 5606 5602 5598 5593 5589 5585 5581 5578 5574 5571 5567 5564 5561 5557 5554 5551 5548 5545